Showing default

IRIDIUM 155, 43573

Orbit data source: Space-Track

IRIDIUM 155, 43573 is a payload satellite owned by Iridium (US) in LEO that was launched on Wed, 25 Jul 2018 UTC via an FALCON 9 launch vehicle from the Air Force Western Test Range (AFWTR). Payload-class satellites include a variety of spacecraft equipped with specific instruments for various scientific and technological missions. These include communications satellites like Starlink; space stations such as the ISS; scientific satellites like the Hubble; Earth observation satellites from companies like Planet Labs, Umbra, and HawkEye 360; GPS; miniature CubeSats for education and research; and military/defense satellites.

Loading next visibility...
Identifier
43573, 2018-061E
Orbit
LEO
Country
Flag of USUS
Related business
Manufacturer
NGIS SSG Gilbert
Mission
Operational Commercial Communications
Bus & Motor
ELITEBUS, Unknown motor
Mass
860 kg wet, 700 kg dry
Launch date (UTC)
2018-07-25 (7 years ago)
Launch vehicle
FALCON 9
Launch site
Air Force Western Test Range (AFWTR)
Object type
Payload
Rocket body
Debris
Shape & HBR
Trap Box + 2 Pan, 4.8 m
Radar Cross Section
10.154 m², Large (>1 m²)

Expand to show TLE details & history
Last TLE update: 12 hours ago

TLE from 12 hours ago
0 IRIDIUM 155
1 43573U 18061E   25352.48040002  .00000248  00000-0  81631-4 0  9990
2 43573  86.3980 132.2379 0001991  98.9101 261.2320 14.34217816387453
Epoch: 2025-12-18T11:31Z
TLE epoch observation values (Epoch: 2025-12-18T11:31:46.561Z)
Latitude
-0.00006°
Longitude
-128.04141°
Altitude
780.935 km
Speed
7.463 km/s
True Right ascension
08h 48m 57s
True Declination
0° 00' 00"
Sunlit
Object was in full shadow at epoch
Visualization orbit readout
Latitude
Unknown
Longitude
Unknown
Altitude
Unknown
Speed
Unknown
Apparent Right ascension
Unknown
Apparent Declination
Unknown
Sunlit
N/A
Visualization observer readout
Local Sidereal Time
22:05:07
Azimuth
Unknown
Elevation
Unknown
Doppler factor
Unknown
Orbital elements
Apogee altitude
776.056 km
Perigee altitude
773.207 km
Semi-major axis
7,152.768 km
Eccentricity
0.0002
Inclination
86.398°
RAAN
132.2379°
Arg. of periapsis
98.9101°
True anomaly
261.20945°
Mean anomaly
261.232°
Eccentric anomaly
261.22073°
Mean motion
3.58783 °/min
Orbital period
100.34 mins
BSTAR
0.000081631
Loading maneuver chart data...
Computing Atmospheric mass density...
Loading historical data...
Loading historical data...
Loading historical data...
Loading historical data...
Loading historical data...
Loading historical data...
Loading historical data...

Documentation

Showing up to 5 results
|